Location: Valley Falls
(35.0169°N, 81.9753°W)
Time: 13:40:14
(UTC+00:00)

Hubble Space Telescope - Visible Passes

Search period start: 01 December 2022 00:00
Search period end: 11 December 2022 00:00
Orbit: 530 x 534 km, 28.5° (Epoch: 30 November)

Date Brightness Start Highest point End Pass type
(mag) Time Alt. Az. Time Alt. Az. Time Alt. Az.
06 Dec 2.9 11:51:30 10° SW 11:54:46 23° SSE 11:58:03 10° ESE visible
07 Dec 3.5 10:00:54 11° SSE 10:01:36 11° SSE 10:02:55 10° SE visible
07 Dec 2.7 11:38:39 10° SW 11:42:04 26° S 11:45:29 10° ESE visible
08 Dec 3.5 09:49:26 13° SSE 09:49:26 13° SSE 09:50:56 10° SE visible
08 Dec 2.5 11:25:50 10° SW 11:29:22 28° S 11:32:52 10° ESE visible
09 Dec 3.7 09:37:51 13° SE 09:37:51 13° SE 09:38:40 10° ESE visible
09 Dec 2.3 11:13:04 10° SW 11:16:38 30° S 11:20:14 10° ESE visible
10 Dec 4.0 09:26:09 10° ESE 09:26:09 10° ESE 09:26:15 10° ESE visible
10 Dec 2.2 11:01:22 16° SW 11:03:56 31° S 11:07:34 10° ESE visible
